| time (UTC) | temp F | wind direction | speed MPH | gust MPH | rain 1hr in | rain 24hr in | rain mn in | humidity % | barometer mb |
| 20260903170624 | 83 | 98 | 0.0 | 4.0 | 0.00 | 0.59 | 0.13 | 77 | 1012.2 |
| 20260903165618 | 82 | 150 | 0.0 | 4.0 | 0.00 | 0.59 | 0.13 | 78 | 1012.2 |
| 20260903164639 | 81 | 173 | 0.0 | 5.0 | 0.00 | 0.59 | 0.13 | 79 | 1012.5 |
| 20260903163621 | 81 | 195 | 0.0 | 5.0 | 0.00 | 0.59 | 0.13 | 79 | 1012.5 |
| 20260903162602 | 81 | 118 | 0.0 | 4.0 | 0.00 | 0.59 | 0.13 | 79 | 1012.4 |
| 20260903161533 | 81 | 116 | 0.0 | 4.0 | 0.00 | 0.59 | 0.13 | 79 | 1012.5 |
| 20260903160550 | 81 | 141 | 0.0 | 4.0 | 0.00 | 0.59 | 0.13 | 80 | 1012.8 |
| 20260903155541 | 80 | 131 | 0.0 | 4.0 | 0.00 | 0.59 | 0.13 | 85 | 1013.0 |
| 20260903154527 | 78 | 148 | 0.0 | 4.0 | 0.00 | 0.59 | 0.13 | 84 | 1013.0 |
| 20260903153505 | 78 | 120 | 0.0 | 4.0 | 0.00 | 0.59 | 0.13 | 85 | 1013.2 |
| 20260903152516 | 78 | 200 | 0.0 | 5.0 | 0.00 | 0.59 | 0.13 | 88 | 1013.2 |
| 20260903151507 | 77 | 98 | 0.0 | 5.0 | 0.00 | 0.59 | 0.13 | 87 | 1013.2 |
| 20260903145308 | 75 | 170 | 0.0 | 0.0 | 0.00 | 0.59 | 0.13 | 91 | 1013.6 |
| 20260903144249 | 75 | 104 | 0.0 | 2.0 | 0.00 | 0.59 | 0.13 | 91 | 1013.5 |
| 20260903143257 | 75 | 141 | 0.0 | 0.0 | 0.00 | 0.59 | 0.13 | 91 | 1013.4 |
| 20260903142224 | 75 | 186 | 0.0 | 0.0 | 0.00 | 0.59 | 0.13 | 92 | 1013.4 |
| 20260903141249 | 75 | 82 | 0.0 | 0.0 | 0.00 | 0.59 | 0.13 | 94 | 1013.5 |
| 20260903140235 | 74 | 271 | 0.0 | 1.0 | 0.00 | 0.59 | 0.13 | 94 | 1013.5 |
| 20260903135229 | 74 | 174 | 0.0 | 0.0 | 0.00 | 0.59 | 0.13 | 96 | 1013.6 |
| 20260903134243 | 73 | 207 | 0.0 | 0.0 | 0.00 | 0.59 | 0.13 | 98 | 1013.5 |
| 20260903133216 | 73 | 190 | 0.0 | 0.0 | 0.00 | 0.59 | 0.13 | 99 | 1013.6 |
| 20260903132223 | 72 | 190 | 0.0 | 0.0 | 0.00 | 0.59 | 0.13 | 99 | 1013.5 |
| 20260903130019 | 71 | 191 | 0.0 | 0.0 | 0.00 | 0.59 | 0.13 | 99 | 1013.9 |
| 20260903125034 | 71 | 191 | 0.0 | 0.0 | 0.00 | 0.59 | 0.13 | 99 | 1014.0 |
| 20260903124024 | 71 | 191 | 0.0 | 0.0 | 0.00 | 0.59 | 0.13 | 99 | 1014.1 |
| 20260903120748 | 70 | 191 | 0.0 | 0.0 | 0.00 | 0.59 | 0.13 | 99 | 1014.4 |
| 20260903115744 | 70 | 191 | 0.0 | 0.0 | 0.00 | 0.59 | 0.13 | 99 | 1014.4 |
| 20260903114757 | 70 | 191 | 0.0 | 0.0 | 0.00 | 0.59 | 0.13 | 99 | 1014.4 |
| 20260903113809 | 69 | 191 | 0.0 | 0.0 | 0.00 | 0.59 | 0.13 | 99 | 1014.2 |
| 20260903081944 | 68 | 191 | 0.0 | 0.0 | 0.00 | 0.59 | 0.13 | 100 | 1014.5 |
| 20260903081006 | 68 | 191 | 0.0 | 0.0 | 0.00 | 0.59 | 0.13 | 99 | 1014.6 |
| 20260903080026 | 68 | 191 | 0.0 | 0.0 | 0.00 | 0.59 | 0.13 | 99 | 1014.5 |
| 20260903074954 | 68 | 191 | 0.0 | 0.0 | 0.00 | 0.59 | 0.13 | 99 | 1014.5 |
| 20260903073940 | 68 | 191 | 0.0 | 0.0 | 0.00 | 0.59 | 0.13 | 99 | 1014.6 |
| 20260903072942 | 68 | 191 | 0.0 | 0.0 | 0.00 | 0.59 | 0.13 | 99 | 1014.8 |
| 20260903071948 | 68 | 191 | 0.0 | 0.0 | 0.00 | 0.59 | 0.13 | 99 | 1014.9 |
| 20260903070923 | 68 | 192 | 0.0 | 0.0 | 0.00 | 0.59 | 0.13 | 99 | 1015.3 |
| 20260903065948 | 68 | 191 | 0.0 | 0.0 | 0.00 | 0.59 | 0.13 | 99 | 1015.0 |
| 20260903064935 | 68 | 191 | 0.0 | 0.0 | 0.00 | 0.59 | 0.13 | 99 | 1014.9 |
| 20260903063935 | 68 | 191 | 0.0 | 0.0 | 0.00 | 0.59 | 0.13 | 99 | 1014.8 |
| 20260903062922 | 68 | 191 | 0.0 | 0.0 | 0.00 | 0.59 | 0.13 | 99 | 1015.0 |
| 20260903061912 | 68 | 191 | 0.0 | 0.0 | 0.00 | 0.58 | 0.12 | 98 | 1015.5 |
| 20260903060920 | 68 | 191 | 0.0 | 0.0 | 0.00 | 0.58 | 0.12 | 98 | 1015.8 |
| 20260903055935 | 68 | 191 | 0.0 | 0.0 | 0.06 | 0.58 | 0.12 | 98 | 1015.6 |
| 20260903054926 | 68 | 218 | 0.0 | 0.0 | 0.06 | 0.56 | 0.10 | 98 | 1015.5 |
| 20260903053916 | 68 | 218 | 0.0 | 0.0 | 0.16 | 0.55 | 0.10 | 98 | 1016.1 |
| 20260903052858 | 69 | 169 | 0.0 | 0.0 | 0.16 | 0.52 | 0.06 | 98 | 1017.0 |
| 20260903051841 | 69 | 168 | 0.0 | 0.0 | 0.12 | 0.48 | 0.03 | 98 | 1017.0 |
| 20260903050858 | 69 | 187 | 0.0 | 0.0 | 0.00 | 0.47 | 0.01 | 98 | 1016.8 |
| 20260903044703 | 69 | 188 | 0.0 | 0.0 | 0.00 | 0.46 | 0.00 | 98 | 1017.0 |
| 20260903043643 | 69 | 187 | 0.0 | 0.0 | 0.00 | 0.46 | 0.00 | 97 | 1016.9 |
| 20260903042707 | 68 | 188 | 0.0 | 0.0 | 0.00 | 0.46 | 0.00 | 97 | 1016.8 |
| 20260903041641 | 69 | 187 | 0.0 | 0.0 | 0.00 | 0.46 | 0.00 | 97 | 1017.0 |
| 20260903040634 | 69 | 188 | 0.0 | 0.0 | 0.00 | 0.46 | 0.00 | 97 | 1017.3 |
| 20260903035657 | 69 | 188 | 0.0 | 0.0 | 0.00 | 0.46 | 0.46 | 97 | 1017.4 |
| 20260903032413 | 68 | 177 | 0.0 | 0.0 | 0.00 | 0.46 | 0.46 | 97 | 1017.0 |
| 20260903025113 | 68 | 177 | 0.0 | 0.0 | 0.00 | 0.46 | 0.46 | 97 | 1017.8 |
| 20260903024132 | 68 | 179 | 0.0 | 0.0 | 0.00 | 0.46 | 0.46 | 97 | 1017.9 |
| 20260903023157 | 68 | 179 | 0.0 | 0.0 | 0.00 | 0.46 | 0.46 | 97 | 1017.7 |
| 20260903022127 | 68 | 179 | 0.0 | 0.0 | 0.00 | 0.46 | 0.46 | 97 | 1017.8 |
| 20260903021121 | 68 | 179 | 0.0 | 0.0 | 0.00 | 0.46 | 0.46 | 98 | 1017.9 |
| 20260903014926 | 68 | 219 | 0.0 | 1.0 | 0.00 | 0.46 | 0.46 | 98 | 1018.0 |
| 20260903013939 | 68 | 72 | 0.0 | 0.0 | 0.00 | 0.46 | 0.46 | 98 | 1018.0 |
| 20260903012907 | 68 | 145 | 0.0 | 0.0 | 0.00 | 0.46 | 0.46 | 99 | 1018.3 |
| 20260903010703 | 67 | 146 | 0.0 | 0.0 | 0.00 | 0.46 | 0.46 | 99 | 1018.3 |
| 20260903005701 | 67 | 145 | 0.0 | 0.0 | 0.00 | 0.46 | 0.46 | 99 | 1018.4 |
| 20260903003615 | 67 | 146 | 0.0 | 0.0 | 0.00 | 0.46 | 0.46 | 99 | 1018.7 |
| 20260903002634 | 67 | 145 | 0.0 | 0.0 | 0.00 | 0.46 | 0.46 | 98 | 1018.2 |
| 20260903001601 | 67 | 145 | 0.0 | 0.0 | 0.00 | 0.46 | 0.46 | 98 | 1017.8 |
| 20260902234251 | 67 | 145 | 0.0 | 0.0 | 0.00 | 0.46 | 0.46 | 98 | 1017.7 |
| 20260902233218 | 67 | 146 | 0.0 | 0.0 | 0.00 | 0.46 | 0.46 | 98 | 1018.0 |
| 20260902232146 | 67 | 145 | 0.0 | 0.0 | 0.00 | 0.46 | 0.46 | 97 | 1018.1 |
| 20260902230037 | 68 | 123 | 0.0 | 0.0 | 0.00 | 0.46 | 0.46 | 96 | 1018.3 |
| 20260902225035 | 68 | 122 | 0.0 | 0.0 | 0.00 | 0.46 | 0.46 | 96 | 1018.7 |
| 20260902224055 | 68 | 123 | 0.0 | 0.0 | 0.00 | 0.46 | 0.46 | 96 | 1019.1 |
| 20260902223041 | 68 | 123 | 0.0 | 0.0 | 0.00 | 0.46 | 0.46 | 95 | 1019.1 |
| 20260902220947 | 69 | 122 | 0.0 | 0.0 | 0.00 | 0.46 | 0.46 | 96 | 1019.3 |
| 20260902215945 | 69 | 122 | 0.0 | 0.0 | 0.00 | 0.46 | 0.46 | 95 | 1019.4 |
| 20260902214943 | 70 | 136 | 0.0 | 0.0 | 0.00 | 0.46 | 0.46 | 95 | 1019.1 |
| 20260902213937 | 69 | 98 | 0.0 | 0.0 | 0.00 | 0.46 | 0.46 | 96 | 1018.8 |
| 20260902212932 | 69 | 98 | 0.0 | 0.0 | 0.00 | 0.46 | 0.46 | 96 | 1019.0 |
| 20260902211936 | 69 | 98 | 0.0 | 0.0 | 0.00 | 0.46 | 0.46 | 96 | 1018.9 |
| 20260902210955 | 68 | 98 | 0.0 | 1.0 | 0.00 | 0.46 | 0.46 | 96 | 1018.9 |
| 20260902210014 | 68 | 271 | 0.0 | 1.0 | 0.00 | 0.46 | 0.46 | 96 | 1018.8 |
| 20260902205011 | 68 | 193 | 0.0 | 1.0 | 0.00 | 0.46 | 0.46 | 97 | 1018.6 |
| 20260902204035 | 68 | 165 | 0.0 | 0.0 | 0.00 | 0.46 | 0.46 | 97 | 1018.5 |
| 20260902203007 | 67 | 264 | 0.0 | 0.0 | 0.04 | 0.46 | 0.46 | 97 | 1018.7 |
| 20260902201959 | 67 | 188 | 0.0 | 0.0 | 0.06 | 0.46 | 0.46 | 97 | 1018.8 |
| 20260902200928 | 67 | 174 | 0.0 | 0.0 | 0.05 | 0.45 | 0.45 | 97 | 1018.8 |
| 20260902195854 | 67 | 176 | 0.0 | 0.0 | 0.09 | 0.43 | 0.43 | 97 | 1019.0 |
| 20260902194842 | 67 | 176 | 0.0 | 0.0 | 0.04 | 0.42 | 0.43 | 97 | 1019.1 |
| 20260902192731 | 66 | 186 | 0.0 | 0.0 | 0.18 | 0.39 | 0.40 | 96 | 1019.2 |
| 20260902191705 | 67 | 203 | 0.0 | 0.0 | 0.55 | 0.32 | 0.35 | 94 | 1019.8 |
| 20260902190656 | 68 | 176 | 0.0 | 0.0 | 0.93 | 0.19 | 0.21 | 90 | 1020.1 |
| 20260902185628 | 70 | 173 | 0.0 | 0.0 | 0.00 | 0.00 | 0.00 | 86 | 1020.2 |
| 20260902183441 | 70 | 172 | 0.0 | 6.0 | 0.00 | 0.00 | 0.00 | 83 | 1019.1 |
| 20260902182429 | 71 | 152 | 0.0 | 2.0 | 0.00 | 0.00 | 0.00 | 83 | 1018.9 |
| 20260902181426 | 71 | 248 | 1.0 | 7.0 | 0.00 | 0.00 | 0.00 | 82 | 1019.1 |
| 20260902180411 | 71 | 260 | 1.0 | 5.0 | 0.00 | 0.00 | 0.00 | 82 | 1019.5 |
| 20260902175423 | 71 | 201 | 1.0 | 5.0 | 0.00 | 0.00 | 0.00 | 83 | 1019.5 |
| 20260902174444 | 71 | 258 | 0.0 | 2.0 | 0.00 | 0.00 | 0.00 | 84 | 1019.7 |
| 20260902173415 | 70 | 199 | 0.0 | 2.0 | 0.00 | 0.00 | 0.00 | 83 | 1019.7 |
| 20260902172437 | 70 | 20 | 0.0 | 2.0 | 0.00 | 0.00 | 0.00 | 84 | 1019.7 |